Simultaneous Nadir Overpasses (SNOs) Predictions

Prediction of SNOs between GOES-16 and AQUA Satellite Orbit:

Table of predicted SNOs for the next 14.0 days since TLE Epoch: 7/15/2024
Index Date Time (GOES-16) GOES-16 Lat,Lon AQUA Lat,Lon Distance(km) Time Diff (sec)
1 07/15/2024 07:10:53 0.06, -75.21 -0.01, -74.91 33.35 80
2 07/17/2024 06:54:07 0.05, -75.20 -0.91, -70.82 499.41 80
3 07/17/2024 19:17:00 -0.05, -75.20 -0.14, -75.71 57.92 80
4 07/19/2024 18:57:32 -0.04, -75.20 0.71, -71.60 408.83 80
5 07/20/2024 07:20:16 0.04, -75.20 0.32, -76.45 142.29 80
6 07/22/2024 07:00:48 0.03, -75.21 -0.59, -72.35 325.49 80
7 07/22/2024 19:23:39 -0.03, -75.20 -0.48, -77.23 231.27 80
8 07/24/2024 19:04:10 -0.04, -75.21 0.44, -73.13 238.16 80
9 07/25/2024 07:26:53 0.04, -75.23 0.63, -77.97 312.25 80
10 07/27/2024 07:07:23 0.03, -75.25 -0.29, -73.86 158.33 80
11 07/27/2024 19:30:14 -0.03, -75.24 -0.79, -78.74 397.87 80
